Retour au catalogue

FENGYUN 1C DEB

ActifPO
NORAD 41009·DEBRIS·🇨🇳 China

Lancé May 10, 1999 depuis Taiyuan Satellite Launch Center

Loading…

Prochains Passages (prochaines 24 heures)

TLE

FraisSource: Space-Track

Époque: Sep 13, 2026, 05:35 UTC

1 41009U 99025EXP 26256.23319517  .00005155  00000-0  12009-2 0  9991
2 41009  99.2071 262.9134 0012293 348.6517  11.4398 14.55269143629746

Suivez FENGYUN 1C DEB en temps réel avec AllMySat

Download on the App Store